Time,TemperatureF,DewpointF,PressureIn,WindDirection,WindDirectionDegrees,WindSpeedMPH,WindSpeedGustMPH,Humidity,HourlyPrecipIn,Conditions,Clouds,dailyrainin,SoftwareType,DateUTC
2013-05-19 00:00:00,60.4,40.1,30.01,SE,135,0.0,0.0,47,0.00,,SKC,0.00,VWS V14.01,2013-05-19 04:00:00,
2013-05-19 00:01:00,59.9,40.7,30.01,SE,135,0.0,0.0,49,0.00,,SKC,0.00,VWS V14.01,2013-05-19 04:01:00,
2013-05-19 00:06:00,59.7,41.0,30.01,SE,135,0.0,0.0,50,0.00,,SKC,0.00,VWS V14.01,2013-05-19 04:06:00,
2013-05-19 00:11:00,59.5,40.3,30.01,SE,135,0.0,0.0,49,0.00,,SKC,0.00,VWS V14.01,2013-05-19 04:11:00,
2013-05-19 00:16:00,59.1,40.0,30.01,SE,135,0.0,0.0,49,0.00,,SKC,0.00,VWS V14.01,2013-05-19 04:16:00,
2013-05-19 00:21:00,59.1,40.5,30.01,SE,135,0.0,0.0,50,0.00,,SKC,0.00,VWS V14.01,2013-05-19 04:21:00,
2013-05-19 00:26:00,59.1,40.5,30.01,SE,135,0.0,0.0,50,0.00,,SKC,0.00,VWS V14.01,2013-05-19 04:26:00,
2013-05-19 00:31:00,59.0,40.4,30.02,SE,135,0.0,0.0,50,0.00,,SKC,0.00,VWS V14.01,2013-05-19 04:31:00,
2013-05-19 00:36:00,58.8,40.7,30.02,SE,135,0.0,0.0,51,0.00,,SKC,0.00,VWS V14.01,2013-05-19 04:36:00,
2013-05-19 00:41:00,58.6,40.0,30.01,SE,135,0.0,0.0,50,0.00,,SKC,0.00,VWS V14.01,2013-05-19 04:41:00,
2013-05-19 00:46:00,58.6,40.0,30.02,SE,135,0.0,0.0,50,0.00,,SKC,0.00,VWS V14.01,2013-05-19 04:46:00,
2013-05-19 00:51:00,58.6,40.0,30.01,SE,135,0.0,0.0,50,0.00,,SKC,0.00,VWS V14.01,2013-05-19 04:51:00,
2013-05-19 00:56:00,58.4,40.4,30.01,SE,135,0.0,0.0,51,0.00,,SKC,0.00,VWS V14.01,2013-05-19 04:56:00,
2013-05-19 01:01:00,58.4,39.8,30.01,SE,135,0.0,0.0,50,0.00,,SKC,0.00,VWS V14.01,2013-05-19 05:01:00,
2013-05-19 01:06:00,58.4,40.4,30.01,SE,135,0.0,0.0,51,0.00,,SKC,0.00,VWS V14.01,2013-05-19 05:06:00,
2013-05-19 01:11:00,58.1,39.6,30.01,SE,135,0.0,0.0,50,0.00,,SKC,0.00,VWS V14.01,2013-05-19 05:11:00,
2013-05-19 01:16:00,58.1,39.6,30.01,SE,135,0.0,0.0,50,0.00,,SKC,0.00,VWS V14.01,2013-05-19 05:16:00,
2013-05-19 01:21:00,58.1,39.6,30.01,SE,135,0.0,0.0,50,0.00,,SKC,0.00,VWS V14.01,2013-05-19 05:21:00,
2013-05-19 01:26:00,58.1,40.1,30.01,SE,135,0.0,0.0,51,0.00,,SKC,0.00,VWS V14.01,2013-05-19 05:26:00,
2013-05-19 01:31:00,58.1,40.1,30.00,SE,135,0.0,0.0,51,0.00,,SKC,0.00,VWS V14.01,2013-05-19 05:31:00,
2013-05-19 01:37:00,57.9,40.4,30.00,SE,135,0.0,0.0,52,0.00,,SKC,0.00,VWS V14.01,2013-05-19 05:37:00,
2013-05-19 01:42:00,58.1,40.1,30.00,SE,135,0.0,0.0,51,0.00,,SKC,0.00,VWS V14.01,2013-05-19 05:42:00,
2013-05-19 01:47:00,57.9,39.9,30.00,SE,135,0.0,0.0,51,0.00,,SKC,0.00,VWS V14.01,2013-05-19 05:47:00,
2013-05-19 01:52:00,58.1,40.1,29.99,SE,135,0.0,0.0,51,0.00,,SKC,0.00,VWS V14.01,2013-05-19 05:52:00,
2013-05-19 01:57:00,57.9,40.4,29.99,SE,135,0.0,0.0,52,0.00,,SKC,0.00,VWS V14.01,2013-05-19 05:57:00,
2013-05-19 02:02:00,58.1,40.1,29.99,SE,135,0.0,0.0,51,0.00,,SKC,0.00,VWS V14.01,2013-05-19 06:02:00,
2013-05-19 02:07:00,58.1,40.6,29.99,SE,135,0.0,0.0,52,0.00,,SKC,0.00,VWS V14.01,2013-05-19 06:07:00,
2013-05-19 02:12:00,57.9,40.9,29.98,SE,135,0.0,0.0,53,0.00,,SKC,0.00,VWS V14.01,2013-05-19 06:12:00,
2013-05-19 02:17:00,57.9,40.9,29.98,SE,135,0.0,0.0,53,0.00,,SKC,0.00,VWS V14.01,2013-05-19 06:17:00,
2013-05-19 02:22:00,57.9,41.4,29.98,SE,135,0.0,0.0,54,0.00,,SKC,0.00,VWS V14.01,2013-05-19 06:22:00,
2013-05-19 02:27:00,57.7,41.2,29.97,SE,135,0.0,0.0,54,0.00,,SKC,0.00,VWS V14.01,2013-05-19 06:27:00,
2013-05-19 02:32:00,57.5,41.5,29.97,SE,135,0.0,0.0,55,0.00,,SKC,0.00,VWS V14.01,2013-05-19 06:32:00,
2013-05-19 02:37:00,57.5,41.5,29.97,SE,135,0.0,0.0,55,0.00,,SKC,0.00,VWS V14.01,2013-05-19 06:37:00,
2013-05-19 02:42:00,57.5,41.9,29.97,SE,135,0.0,0.0,56,0.00,,SKC,0.00,VWS V14.01,2013-05-19 06:42:00,
2013-05-19 02:47:00,57.3,41.8,29.97,SE,135,0.0,0.0,56,0.00,,SKC,0.00,VWS V14.01,2013-05-19 06:47:00,
2013-05-19 02:52:00,57.3,41.8,29.97,SE,135,0.0,0.0,56,0.00,,SKC,0.00,VWS V14.01,2013-05-19 06:52:00,
2013-05-19 02:57:00,57.0,41.5,29.97,SE,135,0.0,0.0,56,0.00,,SKC,0.00,VWS V14.01,2013-05-19 06:57:00,
2013-05-19 03:02:00,57.0,41.5,29.97,SE,135,0.0,0.0,56,0.00,,SKC,0.00,VWS V14.01,2013-05-19 07:02:00,
2013-05-19 03:07:00,57.3,41.8,29.97,ENE,68,0.0,0.0,56,0.00,,SKC,0.00,VWS V14.01,2013-05-19 07:07:00,
2013-05-19 03:12:00,57.3,41.8,29.97,ENE,68,0.0,0.0,56,0.00,,SKC,0.00,VWS V14.01,2013-05-19 07:12:00,
2013-05-19 03:17:00,57.2,41.7,29.97,ENE,68,0.0,0.0,56,0.00,,SKC,0.00,VWS V14.01,2013-05-19 07:17:00,
2013-05-19 03:22:00,57.3,41.8,29.97,ENE,68,0.0,0.0,56,0.00,,SKC,0.00,VWS V14.01,2013-05-19 07:22:00,
2013-05-19 03:27:00,57.2,41.7,29.97,ENE,68,0.0,0.0,56,0.00,,SKC,0.00,VWS V14.01,2013-05-19 07:27:00,
2013-05-19 03:32:00,57.3,41.8,29.97,ENE,68,0.0,0.0,56,0.00,,SKC,0.00,VWS V14.01,2013-05-19 07:32:00,
2013-05-19 03:37:00,57.3,42.2,29.97,ENE,68,0.0,0.0,57,0.00,,SKC,0.00,VWS V14.01,2013-05-19 07:37:00,
2013-05-19 03:42:00,57.3,42.2,29.96,ENE,68,0.0,0.0,57,0.00,,SKC,0.00,VWS V14.01,2013-05-19 07:42:00,
2013-05-19 03:47:00,57.3,42.2,29.96,NNE,22,0.0,0.0,57,0.00,,SKC,0.00,VWS V14.01,2013-05-19 07:47:00,
2013-05-19 03:52:00,57.3,42.2,29.97,NNE,22,0.0,0.0,57,0.00,,SKC,0.00,VWS V14.01,2013-05-19 07:52:00,
2013-05-19 03:57:00,57.3,42.2,29.97,NW,315,0.0,0.0,57,0.00,,SKC,0.00,VWS V14.01,2013-05-19 07:57:00,
2013-05-19 04:02:00,57.5,42.8,29.97,SSE,158,0.0,0.0,58,0.00,,SKC,0.00,VWS V14.01,2013-05-19 08:02:00,
2013-05-19 04:07:00,57.5,42.4,29.97,NE,45,0.0,0.0,57,0.00,,SKC,0.00,VWS V14.01,2013-05-19 08:07:00,
2013-05-19 04:12:00,57.9,42.8,29.97,NE,45,0.0,0.0,57,0.00,,SKC,0.00,VWS V14.01,2013-05-19 08:12:00,
2013-05-19 04:17:00,58.1,43.0,29.97,SSW,202,0.0,0.0,57,0.00,,SKC,0.00,VWS V14.01,2013-05-19 08:17:00,
2013-05-19 04:22:00,57.9,42.3,29.96,SSW,202,0.0,0.0,56,0.00,,SKC,0.00,VWS V14.01,2013-05-19 08:22:00,
2013-05-19 04:27:00,57.9,42.8,29.96,South,180,0.0,0.0,57,0.00,,SKC,0.00,VWS V14.01,2013-05-19 08:27:00,
2013-05-19 04:32:00,57.9,42.8,29.96,South,180,0.0,0.0,57,0.00,,SKC,0.00,VWS V14.01,2013-05-19 08:32:00,
2013-05-19 04:37:00,57.5,42.4,29.97,South,180,0.0,0.0,57,0.00,,SKC,0.00,VWS V14.01,2013-05-19 08:37:00,
2013-05-19 04:42:00,57.5,42.4,29.97,South,180,0.0,0.0,57,0.00,,SKC,0.00,VWS V14.01,2013-05-19 08:42:00,
2013-05-19 04:47:00,57.3,42.7,29.97,South,180,0.0,0.0,58,0.00,,SKC,0.00,VWS V14.01,2013-05-19 08:47:00,
2013-05-19 04:52:00,57.5,42.4,29.97,South,180,0.0,0.0,57,0.00,,SKC,0.00,VWS V14.01,2013-05-19 08:52:00,
2013-05-19 04:57:00,57.3,42.7,29.97,South,180,0.0,0.0,58,0.00,,SKC,0.00,VWS V14.01,2013-05-19 08:57:00,
2013-05-19 05:02:00,57.3,42.7,29.97,South,180,0.0,0.0,58,0.00,,SKC,0.00,VWS V14.01,2013-05-19 09:02:00,
2013-05-19 05:07:00,57.3,43.1,29.97,South,180,0.0,0.0,59,0.00,,SKC,0.00,VWS V14.01,2013-05-19 09:07:00,
2013-05-19 05:12:00,57.2,43.0,29.97,South,180,0.0,0.0,59,0.00,,SKC,0.00,VWS V14.01,2013-05-19 09:12:00,
2013-05-19 05:17:00,56.8,42.6,29.97,South,180,0.0,0.0,59,0.00,,SKC,0.00,VWS V14.01,2013-05-19 09:17:00,
2013-05-19 05:22:00,56.6,42.5,29.97,South,180,0.0,0.0,59,0.00,,SKC,0.00,VWS V14.01,2013-05-19 09:22:00,
2013-05-19 05:27:00,56.4,42.3,29.97,South,180,0.0,0.0,59,0.00,,SKC,0.00,VWS V14.01,2013-05-19 09:27:00,
2013-05-19 05:33:00,56.4,42.3,29.97,South,180,0.0,0.0,59,0.00,,SKC,0.00,VWS V14.01,2013-05-19 09:33:00,
2013-05-19 05:38:00,56.3,42.2,29.98,South,180,0.0,0.0,59,0.00,,SKC,0.00,VWS V14.01,2013-05-19 09:38:00,
2013-05-19 05:43:00,56.3,42.2,29.98,South,180,0.0,0.0,59,0.00,,SKC,0.00,VWS V14.01,2013-05-19 09:43:00,
2013-05-19 05:48:00,56.1,42.0,29.98,South,180,0.0,0.0,59,0.00,,SKC,0.00,VWS V14.01,2013-05-19 09:48:00,
2013-05-19 05:53:00,56.1,42.8,29.98,South,180,0.0,0.0,61,0.00,,SKC,0.00,VWS V14.01,2013-05-19 09:53:00,
2013-05-19 05:58:00,56.1,42.8,29.98,South,180,0.0,0.0,61,0.00,,SKC,0.00,VWS V14.01,2013-05-19 09:58:00,
2013-05-19 06:03:00,56.1,42.8,29.98,South,180,0.0,0.0,61,0.00,,SKC,0.00,VWS V14.01,2013-05-19 10:03:00,
2013-05-19 06:08:00,55.9,43.1,29.98,South,180,0.0,0.0,62,0.00,,SKC,0.00,VWS V14.01,2013-05-19 10:08:00,
2013-05-19 06:13:00,55.9,43.1,29.98,South,180,0.0,0.0,62,0.00,,SKC,0.00,VWS V14.01,2013-05-19 10:13:00,
2013-05-19 06:18:00,55.7,42.9,29.98,South,180,0.0,0.0,62,0.00,,SKC,0.00,VWS V14.01,2013-05-19 10:18:00,
2013-05-19 06:23:00,55.5,42.7,29.98,South,180,0.0,0.0,62,0.00,,SKC,0.00,VWS V14.01,2013-05-19 10:23:00,
2013-05-19 06:28:00,55.7,42.9,29.98,South,180,0.0,0.0,62,0.00,,SKC,0.00,VWS V14.01,2013-05-19 10:28:00,
2013-05-19 06:33:00,55.5,43.1,29.98,South,180,0.0,0.0,63,0.00,,SKC,0.00,VWS V14.01,2013-05-19 10:33:00,
2013-05-19 06:38:00,55.7,43.3,29.98,South,180,0.0,0.0,63,0.00,,SKC,0.00,VWS V14.01,2013-05-19 10:38:00,
2013-05-19 06:43:00,55.9,43.5,29.98,South,180,0.0,0.0,63,0.00,,SKC,0.00,VWS V14.01,2013-05-19 10:43:00,
2013-05-19 06:48:00,55.9,43.5,29.99,South,180,0.0,0.0,63,0.00,,SKC,0.00,VWS V14.01,2013-05-19 10:48:00,
2013-05-19 06:53:00,56.1,44.1,29.98,South,180,0.0,0.0,64,0.00,,SKC,0.00,VWS V14.01,2013-05-19 10:53:00,
2013-05-19 06:58:00,56.1,44.1,29.99,South,180,0.0,0.0,64,0.00,,SKC,0.00,VWS V14.01,2013-05-19 10:58:00,
2013-05-19 07:03:00,56.3,44.3,29.99,South,180,0.0,0.0,64,0.00,,SKC,0.00,VWS V14.01,2013-05-19 11:03:00,
2013-05-19 07:08:00,56.6,44.6,29.99,South,180,0.0,0.0,64,0.00,,SKC,0.00,VWS V14.01,2013-05-19 11:08:00,
2013-05-19 07:13:00,56.6,44.6,29.99,South,180,0.0,0.0,64,0.00,,SKC,0.00,VWS V14.01,2013-05-19 11:13:00,
2013-05-19 07:18:00,57.3,45.2,29.99,South,180,0.0,0.0,64,0.00,,SKC,0.00,VWS V14.01,2013-05-19 11:18:00,
2013-05-19 07:23:00,57.5,45.4,29.99,South,180,0.0,0.0,64,0.00,,SKC,0.00,VWS V14.01,2013-05-19 11:23:00,
2013-05-19 07:28:00,57.9,45.8,29.99,South,180,0.0,0.0,64,0.00,,SKC,0.00,VWS V14.01,2013-05-19 11:28:00,
2013-05-19 07:33:00,58.2,45.3,29.99,SE,135,0.0,0.0,62,0.00,,SKC,0.00,VWS V14.01,2013-05-19 11:33:00,
2013-05-19 07:38:00,59.0,46.0,29.99,North,0,1.1,1.1,62,0.00,,SKC,0.00,VWS V14.01,2013-05-19 11:38:00,
2013-05-19 07:43:00,59.3,46.3,29.99,North,0,0.0,1.1,62,0.00,,SKC,0.00,VWS V14.01,2013-05-19 11:43:00,
2013-05-19 07:48:00,59.9,46.9,29.99,South,180,0.0,0.0,62,0.00,,SKC,0.00,VWS V14.01,2013-05-19 11:48:00,
2013-05-19 07:53:00,60.2,46.7,29.99,South,180,0.0,0.0,61,0.00,,SKC,0.00,VWS V14.01,2013-05-19 11:53:00,
2013-05-19 07:58:00,60.6,46.7,29.98,South,180,0.0,0.0,60,0.00,,SKC,0.00,VWS V14.01,2013-05-19 11:58:00,
2013-05-19 08:03:00,61.1,47.1,29.99,SSE,158,0.0,0.0,60,0.00,,SKC,0.00,VWS V14.01,2013-05-19 12:03:00,
2013-05-19 08:08:00,61.3,46.9,29.98,WSW,248,0.0,0.0,59,0.00,,SKC,0.00,VWS V14.01,2013-05-19 12:08:00,
2013-05-19 08:13:00,61.3,46.9,29.98,SSW,202,0.0,0.0,59,0.00,,SKC,0.00,VWS V14.01,2013-05-19 12:13:00,
2013-05-19 08:18:00,61.7,46.8,29.98,SW,225,0.0,0.0,58,0.00,,SKC,0.00,VWS V14.01,2013-05-19 12:18:00,
2013-05-19 08:23:00,62.2,47.7,29.98,SSE,158,0.6,1.3,59,0.00,,SKC,0.00,VWS V14.01,2013-05-19 12:23:00,
2013-05-19 08:29:00,62.9,47.9,29.97,SSE,158,0.0,1.3,58,0.00,,SKC,0.00,VWS V14.01,2013-05-19 12:29:00,
2013-05-19 08:34:00,64.2,49.1,29.97,SE,135,0.0,0.8,58,0.00,,SKC,0.00,VWS V14.01,2013-05-19 12:34:00,
2013-05-19 08:39:00,65.8,49.7,29.97,SSW,202,0.0,0.8,56,0.00,,SKC,0.00,VWS V14.01,2013-05-19 12:39:00,
2013-05-19 08:44:00,66.5,49.8,29.97,SSW,202,0.0,0.8,55,0.00,,SKC,0.00,VWS V14.01,2013-05-19 12:44:00,
2013-05-19 08:49:00,67.1,49.9,29.97,SW,225,0.0,0.0,54,0.00,,SKC,0.00,VWS V14.01,2013-05-19 12:49:00,
2013-05-19 08:54:00,67.6,49.4,29.98,SSE,158,0.0,1.5,52,0.00,,SKC,0.00,VWS V14.01,2013-05-19 12:54:00,
2013-05-19 08:59:00,68.1,49.3,29.98,SSE,158,0.6,1.5,51,0.00,,SKC,0.00,VWS V14.01,2013-05-19 12:59:00,
2013-05-19 09:04:00,68.5,50.2,29.98,South,180,0.0,0.0,52,0.00,,SKC,0.00,VWS V14.01,2013-05-19 13:04:00,
2013-05-19 09:09:00,68.9,50.0,29.98,SSE,158,0.0,0.0,51,0.00,,SKC,0.00,VWS V14.01,2013-05-19 13:09:00,
2013-05-19 09:14:00,69.0,49.6,29.98,South,180,0.0,0.0,50,0.00,,SKC,0.00,VWS V14.01,2013-05-19 13:14:00,
2013-05-19 09:19:00,69.4,50.0,29.98,North,0,0.0,0.0,50,0.00,,SKC,0.00,VWS V14.01,2013-05-19 13:19:00,
2013-05-19 09:24:00,69.9,50.4,29.98,SE,135,0.4,0.6,50,0.00,,SKC,0.00,VWS V14.01,2013-05-19 13:24:00,
2013-05-19 09:29:00,70.1,50.6,29.98,South,180,0.0,0.6,50,0.00,,SKC,0.00,VWS V14.01,2013-05-19 13:29:00,
2013-05-19 09:34:00,70.7,51.2,29.98,SSW,202,0.0,0.0,50,0.00,,SKC,0.00,VWS V14.01,2013-05-19 13:34:00,
2013-05-19 09:39:00,71.2,51.1,29.97,SSW,202,1.3,1.3,49,0.00,,SKC,0.00,VWS V14.01,2013-05-19 13:39:00,
2013-05-19 09:44:00,71.7,51.5,29.98,SSE,158,0.0,1.3,49,0.00,,SKC,0.00,VWS V14.01,2013-05-19 13:44:00,
2013-05-19 09:49:00,72.1,51.3,29.98,ESE,112,0.0,0.0,48,0.00,,SKC,0.00,VWS V14.01,2013-05-19 13:49:00,
2013-05-19 09:54:00,72.8,52.0,29.98,South,180,0.0,0.0,48,0.00,,SKC,0.00,VWS V14.01,2013-05-19 13:54:00,
2013-05-19 09:59:00,73.5,52.6,29.98,SSE,158,0.0,0.0,48,0.00,,SKC,0.00,VWS V14.01,2013-05-19 13:59:00,
2013-05-19 10:04:00,73.9,53.0,29.98,SSE,158,0.8,1.3,48,0.00,,SKC,0.00,VWS V14.01,2013-05-19 14:04:00,
2013-05-19 10:09:00,75.0,53.4,29.98,SSW,202,0.6,1.3,47,0.00,,SKC,0.00,VWS V14.01,2013-05-19 14:09:00,
2013-05-19 10:14:00,75.5,53.9,29.97,SW,225,0.0,1.3,47,0.00,,SKC,0.00,VWS V14.01,2013-05-19 14:14:00,
2013-05-19 10:19:00,75.9,53.7,29.97,SW,225,0.0,2.9,46,0.00,,SKC,0.00,VWS V14.01,2013-05-19 14:19:00,
2013-05-19 10:24:00,76.6,53.7,29.97,SE,135,0.0,2.9,45,0.00,,SKC,0.00,VWS V14.01,2013-05-19 14:24:00,
2013-05-19 10:29:00,77.1,54.8,29.98,South,180,0.6,2.9,46,0.00,,SKC,0.00,VWS V14.01,2013-05-19 14:29:00,
2013-05-19 10:34:00,77.7,55.3,29.98,SSE,158,0.0,0.6,46,0.00,,SKC,0.00,VWS V14.01,2013-05-19 14:34:00,
2013-05-19 10:39:00,78.8,55.7,29.98,SSE,158,0.0,0.6,45,0.00,,SKC,0.00,VWS V14.01,2013-05-19 14:39:00,
2013-05-19 10:44:00,79.1,55.3,29.97,SE,135,2.4,2.4,44,0.00,,SKC,0.00,VWS V14.01,2013-05-19 14:44:00,
2013-05-19 10:49:00,79.5,56.3,29.97,SSW,202,1.7,1.7,45,0.00,,SKC,0.00,VWS V14.01,2013-05-19 14:49:00,
2013-05-19 10:54:00,79.8,55.3,29.97,SSW,202,0.0,1.7,43,0.00,,SKC,0.00,VWS V14.01,2013-05-19 14:54:00,
2013-05-19 10:59:00,80.2,55.7,29.97,SSW,202,1.5,1.7,43,0.00,,SKC,0.00,VWS V14.01,2013-05-19 14:59:00,
2013-05-19 11:04:00,80.9,57.0,29.96,SE,135,0.0,1.3,44,0.00,,SKC,0.00,VWS V14.01,2013-05-19 15:04:00,
2013-05-19 11:09:00,81.1,56.5,29.96,WSW,248,0.0,1.3,43,0.00,,SKC,0.00,VWS V14.01,2013-05-19 15:09:00,
2013-05-19 11:14:00,81.3,57.3,29.97,SSE,158,1.7,1.7,44,0.00,,SKC,0.00,VWS V14.01,2013-05-19 15:14:00,
2013-05-19 11:19:00,81.8,57.1,29.97,SW,225,0.0,0.0,43,0.00,,SKC,0.00,VWS V14.01,2013-05-19 15:19:00,
2013-05-19 11:24:00,82.5,57.8,29.97,SSE,158,0.0,0.0,43,0.00,,SKC,0.00,VWS V14.01,2013-05-19 15:24:00,
2013-05-19 11:29:00,82.7,58.0,29.97,SW,225,1.1,1.3,43,0.00,,SKC,0.00,VWS V14.01,2013-05-19 15:29:00,
2013-05-19 11:34:00,82.9,58.1,29.97,SSE,158,0.0,2.2,43,0.00,,SKC,0.00,VWS V14.01,2013-05-19 15:34:00,
2013-05-19 11:39:00,83.1,57.7,29.97,SSE,158,0.8,2.2,42,0.00,,SKC,0.00,VWS V14.01,2013-05-19 15:39:00,
2013-05-19 11:44:00,83.1,57.7,29.97,WSW,248,0.8,2.2,42,0.00,,SKC,0.00,VWS V14.01,2013-05-19 15:44:00,
2013-05-19 11:49:00,83.8,58.3,29.97,SSE,158,3.1,3.1,42,0.00,,SKC,0.00,VWS V14.01,2013-05-19 15:49:00,
2013-05-19 11:54:00,84.3,58.7,29.97,SSW,202,0.0,3.1,42,0.00,,SKC,0.00,VWS V14.01,2013-05-19 15:54:00,
2013-05-19 11:59:00,84.7,59.1,29.97,SW,225,0.6,3.1,42,0.00,,SKC,0.00,VWS V14.01,2013-05-19 15:59:00,
2013-05-19 12:04:00,85.4,59.7,29.97,SSE,158,1.7,1.7,42,0.00,,SKC,0.00,VWS V14.01,2013-05-19 16:04:00,
2013-05-19 12:09:00,86.0,58.9,29.96,South,180,0.0,1.7,40,0.00,,SKC,0.00,VWS V14.01,2013-05-19 16:09:00,
2013-05-19 12:14:00,85.8,58.7,29.96,South,180,0.0,1.7,40,0.00,,SKC,0.00,VWS V14.01,2013-05-19 16:14:00,
2013-05-19 12:19:00,85.8,58.0,29.96,SSE,158,1.3,4.2,39,0.00,,SKC,0.00,VWS V14.01,2013-05-19 16:19:00,
2013-05-19 12:24:00,86.1,59.0,29.96,North,0,0.0,4.2,40,0.00,,SKC,0.00,VWS V14.01,2013-05-19 16:24:00,
2013-05-19 12:30:00,86.3,59.2,29.96,South,180,0.0,4.2,40,0.00,,SKC,0.00,VWS V14.01,2013-05-19 16:30:00,
2013-05-19 12:35:00,86.3,59.8,29.96,SW,225,2.4,2.4,41,0.00,,SKC,0.00,VWS V14.01,2013-05-19 16:35:00,
2013-05-19 12:40:00,86.5,59.3,29.96,SW,225,1.3,2.4,40,0.00,,SKC,0.00,VWS V14.01,2013-05-19 16:40:00,
2013-05-19 12:45:00,86.7,59.5,29.96,SSW,202,0.8,3.1,40,0.00,,SKC,0.00,VWS V14.01,2013-05-19 16:45:00,
2013-05-19 12:50:00,86.9,59.7,29.95,West,270,0.0,0.8,40,0.00,,SKC,0.00,VWS V14.01,2013-05-19 16:50:00,
2013-05-19 12:55:00,87.6,59.6,29.95,West,270,0.0,8.2,39,0.00,,SKC,0.00,VWS V14.01,2013-05-19 16:55:00,
2013-05-19 13:00:00,87.9,58.4,29.95,SSW,202,1.7,8.2,37,0.00,,SKC,0.00,VWS V14.01,2013-05-19 17:00:00,
2013-05-19 13:05:00,87.9,58.4,29.95,SSE,158,3.8,3.8,37,0.00,,SKC,0.00,VWS V14.01,2013-05-19 17:05:00,
2013-05-19 13:10:00,87.9,57.6,29.95,NNW,338,0.0,3.8,36,0.00,,SKC,0.00,VWS V14.01,2013-05-19 17:10:00,
2013-05-19 13:15:00,88.1,57.8,29.94,SSE,158,0.0,3.8,36,0.00,,SKC,0.00,VWS V14.01,2013-05-19 17:15:00,
2013-05-19 13:20:00,88.5,58.2,29.94,West,270,0.0,0.6,36,0.00,,SKC,0.00,VWS V14.01,2013-05-19 17:20:00,
2013-05-19 13:25:00,88.5,58.2,29.94,ESE,112,0.0,12.9,36,0.00,,SKC,0.00,VWS V14.01,2013-05-19 17:25:00,
2013-05-19 13:30:00,88.1,57.0,29.94,SW,225,1.3,12.9,35,0.00,,SKC,0.00,VWS V14.01,2013-05-19 17:30:00,
2013-05-19 13:35:00,87.9,56.9,29.94,WSW,248,0.0,11.8,35,0.00,,SKC,0.00,VWS V14.01,2013-05-19 17:35:00,
2013-05-19 13:40:00,87.4,57.2,29.93,South,180,2.4,11.8,36,0.00,,SKC,0.00,VWS V14.01,2013-05-19 17:40:00,
2013-05-19 13:45:00,87.6,58.1,29.93,WSW,248,0.0,11.8,37,0.00,,SKC,0.00,VWS V14.01,2013-05-19 17:45:00,
2013-05-19 13:50:00,87.9,57.6,29.93,SSW,202,0.0,0.6,36,0.00,,SKC,0.00,VWS V14.01,2013-05-19 17:50:00,
2013-05-19 13:55:00,88.1,57.8,29.93,SSE,158,1.7,7.8,36,0.00,,SKC,0.00,VWS V14.01,2013-05-19 17:55:00,
2013-05-19 14:00:00,88.5,58.2,29.93,SSW,202,2.9,7.8,36,0.00,,SKC,0.00,VWS V14.01,2013-05-19 18:00:00,
2013-05-19 14:05:00,88.3,57.2,29.92,North,0,0.0,2.0,35,0.00,,SKC,0.00,VWS V14.01,2013-05-19 18:05:00,
2013-05-19 14:10:00,88.1,57.8,29.92,South,180,1.7,2.6,36,0.00,,SKC,0.00,VWS V14.01,2013-05-19 18:10:00,
2013-05-19 14:15:00,88.1,59.3,29.92,South,180,0.0,0.0,38,0.00,,SKC,0.00,VWS V14.01,2013-05-19 18:15:00,
2013-05-19 14:20:00,87.9,57.6,29.92,SE,135,1.1,2.4,36,0.00,,SKC,0.00,VWS V14.01,2013-05-19 18:20:00,
2013-05-19 14:25:00,87.8,57.5,29.92,SSW,202,5.8,5.8,36,0.00,,SKC,0.00,VWS V14.01,2013-05-19 18:25:00,
2013-05-19 14:30:00,87.9,58.4,29.91,South,180,6.0,6.0,37,0.00,,SKC,0.00,VWS V14.01,2013-05-19 18:30:00,
2013-05-19 14:35:00,88.1,58.6,29.91,WNW,292,1.1,6.0,37,0.00,,SKC,0.00,VWS V14.01,2013-05-19 18:35:00,
2013-05-19 14:40:00,88.5,58.9,29.91,SSW,202,1.5,6.0,37,0.00,,SKC,0.00,VWS V14.01,2013-05-19 18:40:00,
2013-05-19 14:45:00,88.3,58.0,29.91,ESE,112,0.4,0.4,36,0.00,,SKC,0.00,VWS V14.01,2013-05-19 18:45:00,
2013-05-19 14:50:00,88.7,57.6,29.91,South,180,4.6,6.0,35,0.00,,SKC,0.00,VWS V14.01,2013-05-19 18:50:00,
2013-05-19 14:55:00,88.5,57.4,29.91,WNW,292,1.7,6.0,35,0.00,,SKC,0.00,VWS V14.01,2013-05-19 18:55:00,
2013-05-19 15:00:00,88.3,57.2,29.91,WSW,248,0.0,0.0,35,0.00,,SKC,0.00,VWS V14.01,2013-05-19 19:00:00,
2013-05-19 15:06:00,87.9,56.9,29.91,East,90,0.0,0.4,35,0.00,,SKC,0.00,VWS V14.01,2013-05-19 19:06:00,
2013-05-19 15:11:00,88.1,57.0,29.91,SSE,158,2.0,2.0,35,0.00,,SKC,0.00,VWS V14.01,2013-05-19 19:11:00,
2013-05-19 15:16:00,88.5,57.4,29.91,West,270,1.3,1.3,35,0.00,,SKC,0.00,VWS V14.01,2013-05-19 19:16:00,
2013-05-19 15:21:00,88.8,56.8,29.92,WSW,248,4.2,4.2,34,0.00,,SKC,0.00,VWS V14.01,2013-05-19 19:21:00,
2013-05-19 15:26:00,88.7,56.8,29.91,SSE,158,0.4,4.2,34,0.00,,SKC,0.00,VWS V14.01,2013-05-19 19:26:00,
2013-05-19 15:31:00,88.1,56.2,29.91,SSW,202,11.4,11.4,34,0.00,,SKC,0.00,VWS V14.01,2013-05-19 19:31:00,
2013-05-19 15:36:00,87.4,55.6,29.91,WSW,248,0.0,11.4,34,0.00,,SKC,0.00,VWS V14.01,2013-05-19 19:36:00,
2013-05-19 15:41:00,86.7,55.8,29.91,South,180,1.5,11.4,35,0.00,,SKC,0.00,VWS V14.01,2013-05-19 19:41:00,
2013-05-19 15:46:00,86.3,57.7,29.91,SW,225,1.3,1.3,38,0.00,,SKC,0.00,VWS V14.01,2013-05-19 19:46:00,
2013-05-19 15:51:00,86.3,57.7,29.91,WSW,248,0.0,1.3,38,0.00,,SKC,0.00,VWS V14.01,2013-05-19 19:51:00,
2013-05-19 15:56:00,86.5,57.9,29.91,SSE,158,0.0,1.3,38,0.00,,SKC,0.00,VWS V14.01,2013-05-19 19:56:00,
2013-05-19 16:01:00,86.7,57.3,29.91,South,180,0.8,0.8,37,0.00,,SKC,0.00,VWS V14.01,2013-05-19 20:01:00,
2013-05-19 16:06:00,86.3,57.0,29.90,SSW,202,1.5,2.0,37,0.00,,SKC,0.00,VWS V14.01,2013-05-19 20:06:00,
2013-05-19 16:11:00,86.3,57.7,29.91,SSE,158,0.4,2.2,38,0.00,,SKC,0.00,VWS V14.01,2013-05-19 20:11:00,
2013-05-19 16:16:00,86.7,58.1,29.90,West,270,1.3,1.3,38,0.00,,SKC,0.00,VWS V14.01,2013-05-19 20:16:00,
2013-05-19 16:21:00,86.9,58.3,29.90,SSW,202,2.0,2.0,38,0.00,,SKC,0.00,VWS V14.01,2013-05-19 20:21:00,
2013-05-19 16:26:00,87.2,57.8,29.90,SSE,158,2.0,2.0,37,0.00,,SKC,0.00,VWS V14.01,2013-05-19 20:26:00,
2013-05-19 16:31:00,87.2,57.0,29.89,SSE,158,0.0,2.0,36,0.00,,SKC,0.00,VWS V14.01,2013-05-19 20:31:00,
2013-05-19 16:36:00,87.2,57.0,29.89,SSW,202,0.0,2.0,36,0.00,,SKC,0.00,VWS V14.01,2013-05-19 20:36:00,
2013-05-19 16:41:00,87.4,57.2,29.89,SSW,202,0.4,2.0,36,0.00,,SKC,0.00,VWS V14.01,2013-05-19 20:41:00,
2013-05-19 16:46:00,87.4,57.2,29.88,WSW,248,0.0,1.7,36,0.00,,SKC,0.00,VWS V14.01,2013-05-19 20:46:00,
2013-05-19 16:51:00,87.2,56.2,29.87,SSW,202,0.0,1.7,35,0.00,,SKC,0.00,VWS V14.01,2013-05-19 20:51:00,
2013-05-19 16:56:00,87.2,57.0,29.87,South,180,2.9,2.9,36,0.00,,SKC,0.00,VWS V14.01,2013-05-19 20:56:00,
2013-05-19 17:01:00,86.9,56.0,29.87,South,180,0.0,0.6,35,0.00,,SKC,0.00,VWS V14.01,2013-05-19 21:01:00,
2013-05-19 17:06:00,86.7,55.8,29.87,SSE,158,0.0,3.1,35,0.00,,SKC,0.00,VWS V14.01,2013-05-19 21:06:00,
2013-05-19 17:11:00,86.7,56.6,29.87,South,180,2.2,13.4,36,0.00,,SKC,0.00,VWS V14.01,2013-05-19 21:11:00,
2013-05-19 17:16:00,86.7,56.6,29.87,SSE,158,0.0,0.0,36,0.00,,SKC,0.00,VWS V14.01,2013-05-19 21:16:00,
2013-05-19 17:22:00,86.5,56.4,29.87,SSW,202,0.0,1.3,36,0.00,,SKC,0.00,VWS V14.01,2013-05-19 21:22:00,
2013-05-19 17:27:00,86.3,57.0,29.87,SW,225,5.3,5.3,37,0.00,,SKC,0.00,VWS V14.01,2013-05-19 21:27:00,
2013-05-19 17:32:00,86.3,57.0,29.87,SW,225,1.3,1.3,37,0.00,,SKC,0.00,VWS V14.01,2013-05-19 21:32:00,
2013-05-19 17:37:00,86.3,56.2,29.87,West,270,0.0,1.3,36,0.00,,SKC,0.00,VWS V14.01,2013-05-19 21:37:00,
2013-05-19 17:42:00,86.7,57.3,29.88,SW,225,4.6,4.6,37,0.00,,SKC,0.00,VWS V14.01,2013-05-19 21:42:00,
2013-05-19 17:47:00,86.7,57.3,29.87,SSW,202,0.0,0.0,37,0.00,,SKC,0.00,VWS V14.01,2013-05-19 21:47:00,
2013-05-19 17:52:00,86.9,57.5,29.87,SW,225,0.4,8.0,37,0.00,,SKC,0.00,VWS V14.01,2013-05-19 21:52:00,
2013-05-19 17:57:00,86.7,55.8,29.87,SW,225,0.0,8.0,35,0.00,,SKC,0.00,VWS V14.01,2013-05-19 21:57:00,
2013-05-19 18:02:00,86.5,56.4,29.87,North,0,0.0,0.0,36,0.00,,SKC,0.00,VWS V14.01,2013-05-19 22:02:00,
2013-05-19 18:07:00,86.9,56.8,29.87,NW,315,0.0,0.6,36,0.00,,SKC,0.00,VWS V14.01,2013-05-19 22:07:00,
2013-05-19 18:12:00,86.7,56.6,29.87,NNE,22,0.2,0.6,36,0.00,,SKC,0.00,VWS V14.01,2013-05-19 22:12:00,
2013-05-19 18:17:00,86.7,56.6,29.87,SE,135,2.2,2.2,36,0.00,,SKC,0.00,VWS V14.01,2013-05-19 22:17:00,
2013-05-19 18:22:00,86.7,56.6,29.86,SSE,158,0.0,2.2,36,0.00,,SKC,0.00,VWS V14.01,2013-05-19 22:22:00,
2013-05-19 18:27:00,86.5,56.4,29.87,SSW,202,0.0,2.2,36,0.00,,SKC,0.00,VWS V14.01,2013-05-19 22:27:00,
2013-05-19 18:32:00,86.9,56.0,29.87,SSW,202,3.1,3.1,35,0.00,,SKC,0.00,VWS V14.01,2013-05-19 22:32:00,
2013-05-19 18:37:00,86.5,56.4,29.87,SSE,158,0.8,3.1,36,0.00,,SKC,0.00,VWS V14.01,2013-05-19 22:37:00,
2013-05-19 18:42:00,86.3,56.2,29.87,SSW,202,1.7,3.1,36,0.00,,SKC,0.00,VWS V14.01,2013-05-19 22:42:00,
2013-05-19 18:47:00,85.8,56.5,29.87,SSW,202,0.0,4.6,37,0.00,,SKC,0.00,VWS V14.01,2013-05-19 22:47:00,
2013-05-19 18:52:00,85.4,57.7,29.87,SSW,202,3.5,4.6,39,0.00,,SKC,0.00,VWS V14.01,2013-05-19 22:52:00,
2013-05-19 18:57:00,84.9,57.9,29.87,SSW,202,1.5,4.6,40,0.00,,SKC,0.00,VWS V14.01,2013-05-19 22:57:00,
2013-05-19 19:02:00,84.3,58.1,29.87,SW,225,2.9,2.9,41,0.00,,SKC,0.00,VWS V14.01,2013-05-19 23:02:00,
2013-05-19 19:07:00,83.8,57.6,29.87,SSW,202,1.1,3.5,41,0.00,,SKC,0.00,VWS V14.01,2013-05-19 23:07:00,
2013-05-19 19:12:00,83.6,57.4,29.87,SSW,202,0.8,3.5,41,0.00,,SKC,0.00,VWS V14.01,2013-05-19 23:12:00,
2013-05-19 19:17:00,83.1,57.7,29.87,SE,135,0.0,1.5,42,0.00,,SKC,0.00,VWS V14.01,2013-05-19 23:17:00,
2013-05-19 19:22:00,83.3,58.5,29.87,South,180,0.0,2.9,43,0.00,,SKC,0.00,VWS V14.01,2013-05-19 23:22:00,
2013-05-19 19:27:00,82.9,58.1,29.87,South,180,1.3,4.0,43,0.00,,SKC,0.00,VWS V14.01,2013-05-19 23:27:00,
2013-05-19 19:32:00,82.5,57.8,29.87,SSW,202,1.7,3.8,43,0.00,,SKC,0.00,VWS V14.01,2013-05-19 23:32:00,
2013-05-19 19:37:00,82.0,57.3,29.87,SW,225,0.0,3.8,43,0.00,,SKC,0.00,VWS V14.01,2013-05-19 23:37:00,
2013-05-19 19:42:00,81.8,57.8,29.87,South,180,1.1,3.8,44,0.00,,SKC,0.00,VWS V14.01,2013-05-19 23:42:00,
2013-05-19 19:47:00,81.5,57.5,29.87,South,180,1.1,1.3,44,0.00,,SKC,0.00,VWS V14.01,2013-05-19 23:47:00,
2013-05-19 19:52:00,80.9,57.6,29.87,SSW,202,0.8,2.4,45,0.00,,SKC,0.00,VWS V14.01,2013-05-19 23:52:00,
2013-05-19 19:57:00,80.4,57.1,29.87,SSW,202,0.0,2.4,45,0.00,,SKC,0.00,VWS V14.01,2013-05-19 23:57:00,
2013-05-19 20:02:00,79.8,57.8,29.87,SW,225,2.0,2.0,47,0.00,,SKC,0.00,VWS V14.01,2013-05-20 00:02:00,
2013-05-19 20:07:00,79.5,58.7,29.86,SSW,202,1.3,2.0,49,0.00,,SKC,0.00,VWS V14.01,2013-05-20 00:07:00,
2013-05-19 20:12:00,78.9,58.1,29.86,SW,225,2.6,3.1,49,0.00,,SKC,0.00,VWS V14.01,2013-05-20 00:12:00,
2013-05-19 20:17:00,78.0,57.3,29.86,WNW,292,0.0,0.0,49,0.00,,SKC,0.00,VWS V14.01,2013-05-20 00:17:00,
2013-05-19 20:22:00,77.7,57.6,29.87,WSW,248,0.0,0.0,50,0.00,,SKC,0.00,VWS V14.01,2013-05-20 00:22:00,
2013-05-19 20:27:00,77.7,58.7,29.87,SSW,202,2.4,2.4,52,0.00,,SKC,0.00,VWS V14.01,2013-05-20 00:27:00,
2013-05-19 20:33:00,77.1,58.1,29.87,South,180,0.0,0.8,52,0.00,,SKC,0.00,VWS V14.01,2013-05-20 00:33:00,
2013-05-19 20:38:00,76.6,58.2,29.87,SSW,202,0.0,0.8,53,0.00,,SKC,0.00,VWS V14.01,2013-05-20 00:38:00,
2013-05-19 20:43:00,75.9,57.6,29.87,SSW,202,0.0,0.8,53,0.00,,SKC,0.00,VWS V14.01,2013-05-20 00:43:00,
2013-05-19 20:48:00,75.5,58.2,29.87,South,180,0.4,0.4,55,0.00,,SKC,0.00,VWS V14.01,2013-05-20 00:48:00,
2013-05-19 20:53:00,75.3,58.0,29.87,SSW,202,0.4,0.4,55,0.00,,SKC,0.00,VWS V14.01,2013-05-20 00:53:00,
2013-05-19 20:58:00,74.8,58.1,29.87,SSE,158,0.8,0.8,56,0.00,,SKC,0.00,VWS V14.01,2013-05-20 00:58:00,
2013-05-19 21:03:00,74.4,57.7,29.87,SW,225,0.0,1.3,56,0.00,,SKC,0.00,VWS V14.01,2013-05-20 01:03:00,
2013-05-19 21:08:00,74.1,57.9,29.87,SSW,202,0.0,1.3,57,0.00,,SKC,0.00,VWS V14.01,2013-05-20 01:08:00,
2013-05-19 21:13:00,73.9,58.2,29.87,SSW,202,0.0,1.3,58,0.00,,SKC,0.00,VWS V14.01,2013-05-20 01:13:00,
2013-05-19 21:18:00,73.7,58.0,29.87,SSW,202,0.0,0.0,58,0.00,,SKC,0.00,VWS V14.01,2013-05-20 01:18:00,
2013-05-19 21:23:00,73.2,58.0,29.87,SSE,158,0.0,0.0,59,0.00,,SKC,0.00,VWS V14.01,2013-05-20 01:23:00,
2013-05-19 21:28:00,73.0,58.3,29.88,SSW,202,0.6,2.2,60,0.00,,SKC,0.00,VWS V14.01,2013-05-20 01:28:00,
2013-05-19 21:33:00,72.8,58.1,29.88,South,180,5.8,5.8,60,0.00,,SKC,0.00,VWS V14.01,2013-05-20 01:33:00,
2013-05-19 21:38:00,72.5,58.3,29.88,SSW,202,2.4,5.8,61,0.00,,SKC,0.00,VWS V14.01,2013-05-20 01:38:00,
2013-05-19 21:43:00,72.5,58.3,29.88,SSW,202,0.8,5.8,61,0.00,,SKC,0.00,VWS V14.01,2013-05-20 01:43:00,
2013-05-19 21:48:00,72.1,58.4,29.88,SSW,202,0.6,0.6,62,0.00,,SKC,0.00,VWS V14.01,2013-05-20 01:48:00,
2013-05-19 21:53:00,71.9,58.2,29.88,SSW,202,1.3,3.3,62,0.00,,SKC,0.00,VWS V14.01,2013-05-20 01:53:00,
2013-05-19 21:58:00,71.7,58.0,29.89,SSW,202,0.0,3.3,62,0.00,,SKC,0.00,VWS V14.01,2013-05-20 01:58:00,
2013-05-19 22:03:00,71.6,58.3,29.88,SSE,158,1.5,1.5,63,0.00,,SKC,0.00,VWS V14.01,2013-05-20 02:03:00,
2013-05-19 22:08:00,71.0,57.8,29.88,SSW,202,0.0,3.3,63,0.00,,SKC,0.00,VWS V14.01,2013-05-20 02:08:00,
2013-05-19 22:13:00,71.0,57.8,29.88,South,180,0.0,3.3,63,0.00,,SKC,0.00,VWS V14.01,2013-05-20 02:13:00,
2013-05-19 22:18:00,71.0,57.8,29.88,SW,225,1.3,1.3,63,0.00,,SKC,0.00,VWS V14.01,2013-05-20 02:18:00,
2013-05-19 22:23:00,70.7,57.9,29.89,SW,225,1.1,1.3,64,0.00,,SKC,0.00,VWS V14.01,2013-05-20 02:23:00,
2013-05-19 22:28:00,70.7,57.9,29.89,South,180,0.0,1.3,64,0.00,,SKC,0.00,VWS V14.01,2013-05-20 02:28:00,
2013-05-19 22:33:00,70.5,58.2,29.89,South,180,1.5,2.6,65,0.00,,SKC,0.00,VWS V14.01,2013-05-20 02:33:00,
2013-05-19 22:38:00,70.3,58.0,29.89,SSE,158,1.1,2.6,65,0.00,,SKC,0.00,VWS V14.01,2013-05-20 02:38:00,
2013-05-19 22:43:00,70.1,57.8,29.89,SE,135,0.0,2.6,65,0.00,,SKC,0.00,VWS V14.01,2013-05-20 02:43:00,
2013-05-19 22:48:00,69.9,58.0,29.88,South,180,0.0,0.0,66,0.00,,SKC,0.00,VWS V14.01,2013-05-20 02:48:00,
2013-05-19 22:53:00,69.8,57.9,29.89,South,180,0.0,0.8,66,0.00,,SKC,0.00,VWS V14.01,2013-05-20 02:53:00,
2013-05-19 22:58:00,69.4,58.0,29.89,SW,225,1.1,1.1,67,0.00,,SKC,0.00,VWS V14.01,2013-05-20 02:58:00,
2013-05-19 23:03:00,69.4,58.0,29.89,SSW,202,0.0,0.4,67,0.00,,SKC,0.00,VWS V14.01,2013-05-20 03:03:00,
2013-05-19 23:08:00,69.2,57.8,29.89,South,180,0.0,0.4,67,0.00,,SKC,0.00,VWS V14.01,2013-05-20 03:08:00,
2013-05-19 23:13:00,69.0,57.6,29.89,SSW,202,0.0,0.4,67,0.00,,SKC,0.00,VWS V14.01,2013-05-20 03:13:00,
2013-05-19 23:18:00,68.9,57.9,29.89,South,180,0.0,0.0,68,0.00,,SKC,0.00,VWS V14.01,2013-05-20 03:18:00,
2013-05-19 23:23:00,68.7,57.7,29.89,South,180,0.0,0.0,68,0.00,,SKC,0.00,VWS V14.01,2013-05-20 03:23:00,
2013-05-19 23:28:00,68.9,57.9,29.89,SSW,202,0.0,1.1,68,0.00,,SKC,0.00,VWS V14.01,2013-05-20 03:28:00,
2013-05-19 23:33:00,68.7,58.1,29.89,South,180,0.0,1.3,69,0.00,,SKC,0.00,VWS V14.01,2013-05-20 03:33:00,
2013-05-19 23:38:00,68.5,57.9,29.89,SW,225,0.0,1.3,69,0.00,,SKC,0.00,VWS V14.01,2013-05-20 03:38:00,
2013-05-19 23:43:00,68.5,57.9,29.89,SW,225,0.0,1.3,69,0.00,,SKC,0.00,VWS V14.01,2013-05-20 03:43:00,
2013-05-19 23:48:00,68.3,57.8,29.89,SW,225,0.0,0.0,69,0.00,,SKC,0.00,VWS V14.01,2013-05-20 03:48:00,
2013-05-19 23:53:00,68.3,58.2,29.90,South,180,0.0,1.5,70,0.00,,SKC,0.00,VWS V14.01,2013-05-20 03:53:00,
2013-05-19 23:58:00,68.1,58.0,29.90,South,180,0.0,1.5,70,0.00,,SKC,0.00,VWS V14.01,2013-05-20 03:58:00,